Time,TemperatureF,DewpointF,PressureIn,WindDirection,WindDirectionDegrees,WindSpeedMPH,WindSpeedGustMPH,Humidity,HourlyPrecipIn,Conditions,Clouds,dailyrainin,SolarRadiationWatts/m^2,SoftwareType,DateUTC
2013-05-16 00:01:00,49.0,34.0,-100.00,WSW,248,1.0,3.0,55,-99.99,,,0.00,0.000000,,2013-05-16 06:01:00,
2013-05-16 00:12:00,49.0,34.0,-100.00,WSW,248,1.0,3.0,55,-99.99,,,0.00,0.000000,,2013-05-16 06:12:00,
2013-05-16 00:43:00,49.0,35.0,-100.00,NE,43,3.0,4.0,59,-99.99,,,0.00,0.000000,,2013-05-16 06:43:00,
2013-05-16 00:53:00,49.0,35.0,-100.00,NE,43,3.0,4.0,59,-99.99,,,0.00,0.000000,,2013-05-16 06:53:00,
2013-05-16 01:02:00,49.0,35.0,-100.00,NE,43,3.0,4.0,59,-99.99,,,0.00,0.000000,,2013-05-16 07:02:00,
2013-05-16 01:12:00,49.0,35.0,-100.00,NE,43,3.0,4.0,59,-99.99,,,0.00,0.000000,,2013-05-16 07:12:00,
2013-05-16 01:44:00,49.0,37.0,-100.00,North,2,4.0,5.0,63,-99.99,,,0.00,0.000000,,2013-05-16 07:44:00,
2013-05-16 01:54:00,49.0,37.0,-100.00,North,2,4.0,5.0,63,-99.99,,,0.00,0.000000,,2013-05-16 07:54:00,
2013-05-16 02:03:00,49.0,37.0,-100.00,North,2,4.0,5.0,63,-99.99,,,0.00,0.000000,,2013-05-16 08:03:00,
2013-05-16 02:13:00,49.0,37.0,-100.00,North,2,4.0,5.0,63,-99.99,,,0.00,0.000000,,2013-05-16 08:13:00,
2013-05-16 02:44:00,47.0,38.0,-100.00,East,86,1.0,3.0,72,-99.99,,,0.00,0.000000,,2013-05-16 08:44:00,
2013-05-16 02:55:00,47.0,38.0,-100.00,East,86,1.0,3.0,72,-99.99,,,0.00,0.000000,,2013-05-16 08:55:00,
2013-05-16 03:04:00,47.0,38.0,-100.00,East,86,1.0,3.0,72,-99.99,,,0.00,0.000000,,2013-05-16 09:04:00,
2013-05-16 03:14:00,47.0,38.0,-100.00,East,86,1.0,3.0,72,-99.99,,,0.00,0.000000,,2013-05-16 09:14:00,
2013-05-16 03:45:00,46.0,37.0,-100.00,North,9,3.0,5.0,71,-99.99,,,0.00,0.000000,,2013-05-16 09:45:00,
2013-05-16 03:55:00,46.0,37.0,-100.00,North,9,3.0,5.0,71,-99.99,,,0.00,0.000000,,2013-05-16 09:55:00,
2013-05-16 04:04:00,46.0,37.0,-100.00,North,9,3.0,5.0,71,-99.99,,,0.00,0.000000,,2013-05-16 10:04:00,
2013-05-16 04:14:00,46.0,37.0,-100.00,North,9,3.0,5.0,71,-99.99,,,0.00,0.000000,,2013-05-16 10:14:00,
2013-05-16 04:45:00,46.0,36.0,-100.00,East,99,3.0,4.0,70,-99.99,,,0.00,0.000000,,2013-05-16 10:45:00,
2013-05-16 04:56:00,46.0,36.0,-100.00,East,99,3.0,4.0,70,-99.99,,,0.00,0.000000,,2013-05-16 10:56:00,
2013-05-16 05:05:00,46.0,36.0,-100.00,East,99,3.0,4.0,70,-99.99,,,0.00,0.000000,,2013-05-16 11:05:00,
2013-05-16 05:14:00,46.0,36.0,-100.00,East,99,3.0,4.0,70,-99.99,,,0.00,0.000000,,2013-05-16 11:14:00,
2013-05-16 05:46:00,45.0,37.0,-100.00,ENE,60,1.0,3.0,75,-99.99,,,0.00,0.000000,,2013-05-16 11:46:00,
2013-05-16 05:57:00,45.0,37.0,-100.00,ENE,60,1.0,3.0,75,-99.99,,,0.00,0.000000,,2013-05-16 11:57:00,
2013-05-16 06:06:00,45.0,37.0,-100.00,ENE,60,1.0,3.0,75,-99.99,,,0.00,0.000000,,2013-05-16 12:06:00,
2013-05-16 06:13:00,45.0,37.0,-100.00,ENE,60,1.0,3.0,75,-99.99,,,0.00,0.000000,,2013-05-16 12:13:00,
2013-05-16 06:45:00,41.0,36.0,-100.00,ENE,75,2.0,4.0,83,-99.99,,,0.00,7.670000,,2013-05-16 12:45:00,
2013-05-16 06:53:00,41.0,36.0,-100.00,ENE,75,2.0,4.0,83,-99.99,,,0.00,7.670000,,2013-05-16 12:53:00,
2013-05-16 07:04:00,41.0,36.0,-100.00,ENE,75,2.0,4.0,83,-99.99,,,0.00,7.670000,,2013-05-16 13:04:00,
2013-05-16 07:12:00,41.0,36.0,-100.00,ENE,75,2.0,4.0,83,-99.99,,,0.00,7.670000,,2013-05-16 13:12:00,
2013-05-16 07:15:00,45.0,39.0,-100.00,SE,135,1.0,4.0,79,-99.99,,,0.00,80.660004,,2013-05-16 13:15:00,
2013-05-16 07:43:00,45.0,39.0,-100.00,SE,135,1.0,4.0,79,-99.99,,,0.00,80.660004,,2013-05-16 13:43:00,
2013-05-16 07:55:00,45.0,39.0,-100.00,SE,135,1.0,4.0,79,-99.99,,,0.00,80.660004,,2013-05-16 13:55:00,
2013-05-16 08:05:00,45.0,39.0,-100.00,SE,135,1.0,4.0,79,-99.99,,,0.00,80.660004,,2013-05-16 14:05:00,
2013-05-16 08:15:00,46.0,41.0,-100.00,ENE,77,1.0,3.0,81,-99.99,,,0.00,63.340000,,2013-05-16 14:15:00,
2013-05-16 08:47:00,46.0,41.0,-100.00,ENE,77,1.0,3.0,81,-99.99,,,0.00,63.340000,,2013-05-16 14:47:00,
2013-05-16 08:56:00,46.0,41.0,-100.00,ENE,77,1.0,3.0,81,-99.99,,,0.00,63.340000,,2013-05-16 14:56:00,
2013-05-16 09:08:00,46.0,41.0,-100.00,ENE,77,1.0,3.0,81,-99.99,,,0.00,63.340000,,2013-05-16 15:08:00,
2013-05-16 09:15:00,47.0,42.0,-100.00,NE,56,3.0,5.0,84,-99.99,,,0.00,106.230003,,2013-05-16 15:15:00,
2013-05-16 09:50:00,47.0,42.0,-100.00,NE,56,3.0,5.0,84,-99.99,,,0.00,106.230003,,2013-05-16 15:50:00,
2013-05-16 10:00:00,47.0,42.0,-100.00,NE,56,3.0,5.0,84,-99.99,,,0.00,106.230003,,2013-05-16 16:00:00,
2013-05-16 10:09:00,47.0,42.0,-100.00,NE,56,3.0,5.0,84,-99.99,,,0.00,106.230003,,2013-05-16 16:09:00,
2013-05-16 10:15:00,52.0,44.0,-100.00,South,172,2.0,4.0,74,-99.99,,,0.00,224.419998,,2013-05-16 16:15:00,
2013-05-16 10:50:00,52.0,44.0,-100.00,South,172,2.0,4.0,74,-99.99,,,0.00,224.419998,,2013-05-16 16:50:00,
2013-05-16 11:00:00,52.0,44.0,-100.00,South,172,2.0,4.0,74,-99.99,,,0.00,224.419998,,2013-05-16 17:00:00,
2013-05-16 11:10:00,52.0,44.0,-100.00,South,172,2.0,4.0,74,-99.99,,,0.00,224.419998,,2013-05-16 17:10:00,
2013-05-16 11:15:00,52.0,43.0,-100.00,WSW,257,3.0,5.0,69,-99.99,,,0.00,162.589996,,2013-05-16 17:15:00,
2013-05-16 11:50:00,52.0,-99.9,-100.00,WSW,257,3.0,5.0,69,-99.99,,,0.00,162.589996,,2013-05-16 17:50:00,
2013-05-16 12:00:00,-999.0,-99.9,-100.00,WSW,257,3.0,5.0,69,-99.99,,,0.00,162.589996,,2013-05-16 18:00:00,
2013-05-16 12:10:00,52.0,43.0,-100.00,WSW,257,3.0,5.0,69,-99.99,,,0.00,162.589996,,2013-05-16 18:10:00,
2013-05-16 12:15:00,57.0,42.0,-100.00,ENE,64,2.0,4.0,57,-99.99,,,0.00,703.250000,,2013-05-16 18:15:00,
2013-05-16 12:50:00,-999.0,-99.9,-100.00,ENE,64,2.0,4.0,57,-99.99,,,0.00,703.250000,,2013-05-16 18:50:00,
2013-05-16 13:00:00,-999.0,-99.9,-100.00,ENE,64,2.0,4.0,57,-99.99,,,0.00,703.250000,,2013-05-16 19:00:00,
2013-05-16 13:10:00,57.0,42.0,-100.00,ENE,64,2.0,4.0,57,-99.99,,,0.00,703.250000,,2013-05-16 19:10:00,
2013-05-16 13:15:00,56.0,-99.9,-100.00,SSW,204,10.0,14.0,59,-99.99,,,0.00,659.320007,,2013-05-16 19:15:00,
2013-05-16 13:50:00,-999.0,-99.9,-100.00,SSW,204,10.0,14.0,59,-99.99,,,0.00,659.320007,,2013-05-16 19:50:00,
2013-05-16 14:00:00,-999.0,-99.9,-100.00,SSW,204,10.0,14.0,59,-99.99,,,0.00,659.320007,,2013-05-16 20:00:00,
2013-05-16 14:10:00,-999.0,-99.9,-100.00,SSW,204,10.0,14.0,59,-99.99,,,0.00,659.320007,,2013-05-16 20:10:00,
2013-05-16 14:15:00,59.0,42.0,-100.00,South,173,6.0,10.0,52,-99.99,,,0.00,672.570007,,2013-05-16 20:15:00,
2013-05-16 14:50:00,59.0,42.0,-100.00,South,173,6.0,10.0,52,-99.99,,,0.00,672.570007,,2013-05-16 20:50:00,
2013-05-16 15:00:00,59.0,-99.9,-100.00,South,173,6.0,10.0,52,-99.99,,,0.00,672.570007,,2013-05-16 21:00:00,
2013-05-16 15:10:00,59.0,-99.9,-100.00,South,173,6.0,10.0,52,-99.99,,,0.00,672.570007,,2013-05-16 21:10:00,
2013-05-16 15:15:00,57.0,41.0,-100.00,North,4,2.0,5.0,55,-99.99,,,0.00,396.660004,,2013-05-16 21:15:00,
2013-05-16 15:50:00,57.0,-99.9,-100.00,North,4,2.0,5.0,55,-99.99,,,0.00,396.660004,,2013-05-16 21:50:00,
2013-05-16 16:00:00,-999.0,-99.9,-100.00,North,4,2.0,5.0,55,-99.99,,,0.00,396.660004,,2013-05-16 22:00:00,
2013-05-16 16:08:00,57.0,41.0,-100.00,North,4,2.0,5.0,55,-99.99,,,0.00,396.660004,,2013-05-16 22:08:00,
2013-05-16 16:15:00,60.0,43.0,-100.00,East,87,4.0,14.0,54,-99.99,,,0.00,844.919983,,2013-05-16 22:15:00,
2013-05-16 16:50:00,60.0,43.0,-100.00,East,87,4.0,14.0,54,-99.99,,,0.00,844.919983,,2013-05-16 22:50:00,
2013-05-16 17:01:00,60.0,43.0,-100.00,East,87,4.0,14.0,54,-99.99,,,0.00,844.919983,,2013-05-16 23:01:00,
2013-05-16 17:06:00,60.0,43.0,-100.00,East,87,4.0,14.0,54,-99.99,,,0.00,844.919983,,2013-05-16 23:06:00,
2013-05-16 17:45:00,57.0,43.0,-100.00,South,169,8.0,13.0,58,-99.99,,,0.00,295.079987,,2013-05-16 23:45:00,
2013-05-16 17:54:00,57.0,43.0,-100.00,South,169,8.0,13.0,58,-99.99,,,0.00,295.079987,,2013-05-16 23:54:00,
2013-05-16 18:02:00,57.0,43.0,-100.00,South,169,8.0,13.0,58,-99.99,,,0.00,295.079987,,2013-05-17 00:02:00,
2013-05-16 18:13:00,57.0,43.0,-100.00,South,169,8.0,13.0,58,-99.99,,,0.00,295.079987,,2013-05-17 00:13:00,
2013-05-16 18:43:00,58.0,42.0,-100.00,ESE,118,4.0,7.0,56,-99.99,,,0.00,220.820007,,2013-05-17 00:43:00,
2013-05-16 18:53:00,58.0,42.0,-100.00,ESE,118,4.0,7.0,56,-99.99,,,0.00,220.820007,,2013-05-17 00:53:00,
2013-05-16 19:03:00,58.0,42.0,-100.00,ESE,118,4.0,7.0,56,-99.99,,,0.00,220.820007,,2013-05-17 01:03:00,
2013-05-16 19:12:00,58.0,42.0,-100.00,ESE,118,4.0,7.0,56,-99.99,,,0.00,220.820007,,2013-05-17 01:12:00,
2013-05-16 19:43:00,60.0,41.0,-100.00,SE,144,2.0,5.0,49,-99.99,,,0.00,136.210007,,2013-05-17 01:43:00,
2013-05-16 19:52:00,60.0,41.0,-100.00,SE,144,2.0,5.0,49,-99.99,,,0.00,136.210007,,2013-05-17 01:52:00,
2013-05-16 20:02:00,60.0,41.0,-100.00,SE,144,2.0,5.0,49,-99.99,,,0.00,136.210007,,2013-05-17 02:02:00,
2013-05-16 20:11:00,60.0,41.0,-100.00,SE,144,2.0,5.0,49,-99.99,,,0.00,136.210007,,2013-05-17 02:11:00,
2013-05-16 20:42:00,59.0,40.0,-100.00,SW,219,3.0,5.0,48,-99.99,,,0.00,76.940002,,2013-05-17 02:42:00,
2013-05-16 20:53:00,59.0,40.0,-100.00,SW,219,3.0,5.0,48,-99.99,,,0.00,76.940002,,2013-05-17 02:53:00,
2013-05-16 21:01:00,59.0,40.0,-100.00,SW,219,3.0,5.0,48,-99.99,,,0.00,76.940002,,2013-05-17 03:01:00,
2013-05-16 21:11:00,59.0,40.0,-100.00,SW,219,3.0,5.0,48,-99.99,,,0.00,76.940002,,2013-05-17 03:11:00,
2013-05-16 21:43:00,55.0,42.0,-100.00,West,268,10.0,15.0,60,-99.99,,,0.00,6.620000,,2013-05-17 03:43:00,
2013-05-16 21:53:00,55.0,42.0,-100.00,West,268,10.0,15.0,60,-99.99,,,0.00,6.620000,,2013-05-17 03:53:00,
2013-05-16 22:02:00,55.0,42.0,-100.00,West,268,10.0,15.0,60,-99.99,,,0.00,6.620000,,2013-05-17 04:02:00,
2013-05-16 22:13:00,55.0,42.0,-100.00,West,268,10.0,15.0,60,-99.99,,,0.00,6.620000,,2013-05-17 04:13:00,
2013-05-16 22:43:00,53.0,45.0,-100.00,North,2,7.0,12.0,75,-99.99,,,0.00,0.000000,,2013-05-17 04:43:00,
2013-05-16 22:53:00,53.0,45.0,-100.00,North,2,7.0,12.0,75,-99.99,,,0.00,0.000000,,2013-05-17 04:53:00,
2013-05-16 23:02:00,53.0,45.0,-100.00,North,2,7.0,12.0,75,-99.99,,,0.00,0.000000,,2013-05-17 05:02:00,
2013-05-16 23:13:00,53.0,45.0,-100.00,North,2,7.0,12.0,75,-99.99,,,0.00,0.000000,,2013-05-17 05:13:00,
2013-05-16 23:42:00,51.0,45.0,-100.00,WNW,298,4.0,9.0,78,-99.99,,,0.00,0.000000,,2013-05-17 05:42:00,
2013-05-16 23:52:00,51.0,45.0,-100.00,WNW,298,4.0,9.0,78,-99.99,,,0.00,0.000000,,2013-05-17 05:52:00,